weather.gov     
National Weather Service

Terminal Aerodrome Forecast
NWS Homepage
This page is being discontinued on March 12, 2014.
The same data is available at this site. Please update your bookmarks.
Thank you, and we apologize for the inconvenience.
Please send an email to SR-SRH.Webmaster@noaa.gov with any concerns.


Current Version
Previous Version:    01  02  03  04  05  06  07  08  09  10  11  12  13  14  15  16  17  18  19  20  21  22  23  24  25  26  27  28  29  
[Printable]
946
FTAK31 PANC 240726 AAA
TAFAKN
TAF AMD
PAKN 240726Z 2407/2506 18008KT P6SM -RA FEW010 SCT015 OVC025
      TEMPO 2407/2409 BKN005
     FM240900 21007KT 3SM -RA BR BKN004
     FM241500 31007KT P6SM SCT025 BKN040
     FM241900 34008KT P6SM SCT080=


946
FTAK31 PANC 240726 AAA
TAFAKN
TAF AMD
PAKN 240726Z 2407/2506 18008KT P6SM -RA FEW010 SCT015 OVC025
      TEMPO 2407/2409 BKN005
     FM240900 21007KT 3SM -RA BR BKN004
     FM241500 31007KT P6SM SCT025 BKN040
     FM241900 34008KT P6SM SCT080=




U.S. Dept. of Commerce
NOAA National Weather Service
1325 East West Highway
Silver Spring, MD 20910
E-mail: w-nws.webmaster@noaa.gov
Page last modified: May 16, 2007
NATIONAL WEATHER SERVICE: for Safety, for Work, for Fun - FOR LIFE